Wind_Speed
100 105 100 99 99 98 94 91 87 82 75 73 67 67 61 58 52 49 51 41 47 46 40 37 34 36 29 27 31 34 37 34 33 34 35 36 40 44 42 45 45 45 48 49
104 103 105 107 104 100 94 89 85 85 84 82 76 69 62 62 58 52 51 51 52 50 49 42 41 36 34 33 38 39 40 39 35 38 36 39 42 41 47 53 49 47 50 50
108 107 110 109 106 101 93 89 82 82 74 72 73 75 64 56 58 54 57 51 50 50 43 44 42 40 41 37 37 40 41 39 41 42 43 43 45 49 55 52 48 51 53 50
113 111 112 114 106 100 99 93 92 88 79 75 74 68 75 60 60 52 56 49 52 49 40 45 41 46 42 40 42 41 42 43 45 45 49 48 51 57 53 52 51 53 56 60
111 113 115 116 106 104 102 100 97 95 92 86 74 71 72 70 64 61 58 60 57 58 47 45 43 47 47 44 40 39 46 50 45 47 50 55 57 54 53 51 55 63 63 64
117 111 119 117 112 109 106 103 101 100 100 99 81 66 64 65 67 64 66 64 59 54 56 53 52 46 44 46 45 47 50 55 55 56 56 55 62 60 58 60 68 69 73 76
121 106 109 119 115 112 110 104 103 100 98 88 91 86 76 76 71 65 67 69 66 62 62 64 59 53 54 53 53 57 58 57 56 54 61 64 62 67 65 71 72 74 77 79
120 108 107 113 115 113 110 110 101 96 90 87 86 82 77 80 81 78 76 73 75 76 76 67 67 62 62 59 58 58 59 58 63 66 67 71 73 75 79 73 77 79 80 81
119 117 102 103 113 115 112 110 102 97 94 95 93 85 78 79 80 80 78 78 74 70 77 76 71 70 70 72 74 74 71 69 69 72 74 75 80 75 74 80 80 81 84 87
125 122 108 99 108 114 115 113 109 103 100 95 87 82 79 82 84 82 84 84 82 83 82 79 77 77 79 78 77 78 73 74 77 74 78 74 76 77 80 80 83 87 90 97
124 125 109 104 114 114 114 115 112 108 104 97 93 90 84 87 89 88 88 90 92 90 89 84 82 78 80 82 84 77 76 81 82 85 85 83 78 82 83 84 88 92 97 102
126 133 119 111 104 109 116 116 116 115 107 105 103 95 88 88 90 94 92 95 94 91 90 89 85 85 86 83 88 82 84 85 89 89 91 85 85 89 88 90 97 100 101 104
122 130 128 121 111 106 112 118 121 117 116 113 108 98 100 98 99 99 97 96 98 97 91 93 94 93 89 89 89 86 86 89 90 95 88 89 92 94 97 100 103 109 105 106
122 128 134 122 114 109 103 109 114 119 116 109 108 104 104 102 103 104 104 104 101 100 98 97 99 98 91 88 91 93 90 96 97 92 94 94 95 101 105 109 111 108 110 111
120 124 133 126 119 121 108 110 113 113 110 117 102 105 106 106 106 107 107 101 101 102 102 102 98 94 93 92 96 100 101 99 96 96 97 98 105 112 115 110 113 114 114 117
122 123 128 130 125 129 121 109 112 116 117 117 109 105 103 109 108 107 106 105 104 101 102 100 96 99 99 100 101 99 97 97 98 101 107 112 117 116 116 119 119 118 118 119
114 124 123 129 122 127 131 119 109 109 112 107 109 97 103 106 106 107 108 107 103 101 98 95 96 97 99 100 98 99 102 106 110 114 117 119 119 118 121 120 120 122 123 126
116 121 121 125 123 123 119 118 121 111 111 113 108 105 107 108 110 109 109 109 105 104 100 102 104 105 107 111 112 112 115 116 119 123 122 122 120 124 124 122 123 124 126 129
102 117 120 122 120 116 112 117 121 121 113 110 112 111 112 115 119 118 115 110 109 110 110 110 111 112 116 118 119 122 122 124 122 124 124 124 123 126 126 126 125 128 128 130
92 104 118 123 128 117 105 106 114 123 114 99 105 107 115 124 128 119 124 122 123 123 125 123 123 127 125 126 126 124 124 123 124 125 126 123 127 127 127 127 127 128 130 130
92 97 101 110 115 110 106 109 115 118 97 108 109 107 110 116 119 120 126 126 125 123 124 128 129 126 127 126 126 127 124 122 122 121 122 124 125 125 126 128 130 129 133 134
94 99 101 113 112 113 114 111 111 106 101 109 114 114 113 110 113 113 115 118 121 123 123 121 120 121 123 122 121 120 121 120 122 121 122 124 127 128 130 130 130 131 132 136
90 91 92 100 103 111 115 119 116 114 112 109 105 111 113 112 112 112 112 111 114 114 113 113 114 116 118 118 120 120 122 122 123 124 126 127 129 130 131 131 129 132 134 137
91 91 92 91 90 98 105 112 119 115 113 109 110 108 104 108 110 110 109 112 114 116 116 115 116 119 119 120 121 123 122 125 127 129 131 128 128 128 128 129 132 132 132 135
87 88 89 94 92 92 96 101 108 114 114 109 107 106 107 109 108 108 111 113 114 112 113 116 118 119 121 122 122 123 125 126 126 127 128 130 129 131 131 131 131 132 131 131
93 92 92 91 94 97 97 98 101 103 107 110 109 110 110 108 109 112 113 114 114 115 116 118 118 120 122 121 123 123 124 126 127 127 128 128 129 129 128 128 127 129 128 130
Wind_Direction
208 213 216 218 221 222 224 227 227 226 224 227 226 233 232 220 225 233 231 236 245 254 265 266 263 270 265 277 277 286 286 277 285 284 276 281 295 300 305 304 305 305 311 311
208 212 215 216 218 220 223 223 227 229 231 231 230 229 226 228 232 234 231 235 254 250 260 266 257 252 261 269 278 283 277 278 283 274 277 284 292 295 302 305 297 301 308 304
203 210 214 217 219 220 220 222 224 230 232 227 225 228 228 232 230 239 234 234 249 254 255 261 259 256 269 272 273 277 272 270 281 276 282 288 296 300 300 296 291 299 304 298
204 209 213 218 219 220 220 222 226 228 225 222 229 234 229 228 228 235 241 243 245 247 258 261 252 258 268 277 278 276 266 273 274 271 283 287 291 299 292 292 292 296 298 302
204 209 214 218 219 221 223 226 228 227 229 228 230 227 229 230 229 236 237 241 245 248 247 249 257 258 261 264 272 273 273 276 275 277 276 281 288 288 285 286 292 298 299 300
203 208 214 218 219 221 222 225 229 229 230 231 226 219 226 231 234 239 243 237 244 244 242 246 251 254 257 267 269 278 279 275 279 277 278 279 284 286 285 289 292 294 297 299
204 208 212 218 219 221 225 223 226 227 229 233 230 228 234 238 241 241 244 243 243 249 250 251 254 258 261 268 272 277 277 280 273 274 279 285 285 292 287 293 294 294 296 297
203 204 210 216 218 221 222 227 227 228 232 230 234 235 237 237 241 243 243 243 254 258 257 255 253 258 263 272 273 276 276 275 277 284 283 285 286 290 291 291 292 293 295 298
205 202 207 213 216 219 222 226 225 225 223 228 234 232 229 237 237 241 246 251 253 250 254 253 254 257 266 272 274 281 278 276 277 285 289 283 287 283 284 288 289 291 294 298
207 204 208 214 215 218 220 223 226 227 228 231 230 230 233 235 238 242 247 250 251 252 255 256 261 265 270 274 275 279 276 277 277 282 283 279 278 283 288 288 290 291 295 296
209 204 207 213 216 217 220 225 227 228 231 227 231 234 234 233 238 242 246 251 251 254 255 258 263 267 271 273 276 272 277 277 278 277 281 280 283 285 288 288 290 292 294 300
211 206 208 214 217 220 222 222 225 228 226 231 237 234 234 235 239 242 247 249 250 253 256 258 263 266 268 271 271 267 274 274 276 281 280 280 286 290 287 288 291 292 294 299
211 210 209 213 216 221 224 225 229 230 231 231 232 231 237 239 241 243 246 248 252 255 257 261 264 267 266 269 265 269 273 274 277 277 277 281 286 288 289 289 289 291 292 298
213 211 210 213 217 221 222 226 228 229 231 234 236 235 238 237 238 245 247 248 251 253 258 265 262 265 264 264 265 268 273 279 275 272 276 282 286 285 286 287 287 291 292 296
215 212 211 213 217 220 221 223 226 228 229 232 233 234 237 236 240 244 248 249 252 255 261 260 262 261 262 263 266 269 275 276 270 275 280 281 281 284 287 288 288 287 290 294
217 214 213 215 219 221 222 224 227 230 232 233 235 235 237 242 245 245 247 250 253 257 260 258 261 259 260 268 269 270 269 270 273 274 275 277 280 283 289 287 287 288 290 294
220 217 217 217 220 221 224 227 229 231 232 233 232 231 233 237 239 241 244 248 250 254 254 256 257 260 261 261 263 265 267 269 271 275 276 276 279 285 288 286 286 287 290 292
224 220 220 220 222 223 222 229 231 231 232 234 233 232 233 235 237 239 244 246 247 249 252 255 257 259 261 263 264 267 267 268 270 274 276 278 280 283 285 287 288 289 291 292
229 225 224 224 225 224 225 229 231 235 233 232 233 232 233 236 238 240 241 241 242 245 248 250 254 258 260 262 265 267 269 270 273 276 279 280 283 284 284 286 288 288 290 290
229 231 227 226 227 226 226 230 233 234 233 236 238 238 240 241 244 247 244 244 244 246 250 255 260 261 263 265 267 269 270 271 275 278 280 280 283 283 283 285 286 287 289 290
227 229 230 229 230 228 228 231 232 235 232 236 234 234 236 240 244 245 249 252 253 256 257 260 262 264 265 267 268 271 272 275 277 279 279 279 280 281 282 282 284 286 289 289
228 228 230 232 229 228 230 231 235 236 236 235 238 239 239 241 244 247 249 252 254 256 259 260 261 263 264 266 268 269 270 272 274 275 277 278 279 280 281 283 285 286 288 289
230 234 234 234 236 234 233 234 235 238 240 238 240 242 243 241 243 245 247 249 252 254 255 257 260 262 263 264 265 267 269 271 274 275 276 277 279 280 281 283 284 285 287 288
230 232 236 237 236 237 237 239 239 240 242 242 243 242 244 247 247 245 247 248 250 252 254 256 258 260 261 263 265 268 269 271 273 274 276 277 279 280 280 282 285 286 286 287
231 233 235 237 237 237 238 240 241 242 243 243 243 244 245 245 245 247 248 250 251 253 255 256 258 260 261 263 266 268 270 272 273 274 275 276 277 279 282 283 285 286 288 288
233 235 236 236 238 237 237 238 240 242 243 244 246 247 248 248 248 249 249 252 253 254 254 255 257 259 260 263 265 268 270 271 273 274 275 276 278 280 283 285 286 287 287 288
Height
10671 10686 10704 10711 10720 10732 10742 10752 10764 10775 10785 10795 10801 10808 10815 10819 10826 10830 10835 10837 10840 10843 10846 10847 10847 10848 10848 10849 10851 10850 10848 10847 10847 10847 10845 10844 10844 10842 10839 10837 10834 10831 10828 10824
10661 10680 10686 10689 10702 10716 10729 10740 10751 10760 10772 10780 10790 10797 10805 10814 10818 10821 10826 10830 10832 10837 10839 10838 10840 10840 10840 10840 10840 10842 10841 10840 10840 10840 10838 10838 10836 10835 10833 10830 10827 10824 10821 10817
10657 10665 10670 10674 10690 10705 10721 10735 10743 10752 10759 10768 10778 10788 10799 10804 10810 10814 10817 10821 10825 10828 10829 10830 10832 10833 10834 10835 10834 10832 10832 10832 10832 10830 10829 10828 10828 10826 10823 10821 10818 10815 10812 10809
10635 10642 10655 10660 10681 10694 10710 10721 10729 10738 10748 10759 10764 10780 10790 10794 10800 10806 10811 10813 10815 10817 10819 10822 10825 10825 10826 10827 10827 10825 10824 10825 10826 10823 10822 10819 10818 10816 10813 10812 10809 10804 10802 10798
10631 10630 10643 10654 10674 10682 10698 10703 10712 10722 10733 10741 10755 10767 10780 10785 10794 10799 10800 10802 10802 10805 10809 10812 10814 10816 10817 10818 10819 10817 10816 10816 10816 10816 10814 10810 10809 10805 10803 10801 10798 10794 10790 10787
10601 10613 10627 10643 10653 10662 10673 10684 10694 10705 10716 10726 10748 10759 10766 10779 10782 10782 10789 10790 10791 10794 10796 10801 10803 10804 10806 10808 10810 10809 10807 10805 10805 10803 10802 10802 10799 10796 10792 10790 10786 10781 10778 10774
10592 10607 10629 10623 10637 10645 10658 10670 10676 10687 10697 10736 10737 10747 10763 10767 10771 10774 10778 10779 10780 10782 10785 10788 10789 10792 10794 10797 10800 10800 10799 10794 10793 10792 10790 10788 10785 10783 10780 10777 10772 10768 10764 10760
10577 10599 10606 10610 10626 10637 10647 10653 10668 10687 10708 10723 10719 10741 10757 10755 10759 10761 10767 10767 10768 10768 10770 10773 10777 10780 10781 10783 10787 10788 10788 10785 10784 10782 10778 10776 10772 10769 10765 10761 10757 10752 10748 10744
10566 10582 10588 10594 10608 10617 10629 10637 10655 10667 10682 10690 10704 10726 10739 10738 10744 10747 10750 10752 10752 10753 10755 10760 10764 10767 10769 10769 10772 10773 10773 10772 10770 10768 10766 10762 10759 10754 10751 10747 10741 10735 10732 10729
10547 10561 10571 10574 10586 10596 10612 10622 10632 10650 10665 10679 10697 10713 10728 10729 10730 10733 10735 10735 10737 10739 10743 10747 10751 10753 10754 10755 10755 10757 10758 10758 10756 10754 10751 10747 10744 10741 10737 10732 10726 10722 10718 10713
10530 10545 10552 10559 10571 10584 10596 10606 10621 10637 10649 10665 10681 10698 10709 10714 10712 10714 10716 10720 10722 10726 10730 10733 10736 10738 10740 10741 10743 10742 10742 10741 10739 10737 10734 10731 10728 10725 10721 10716 10711 10706 10701 10695
10508 10523 10535 10552 10560 10567 10578 10589 10598 10611 10639 10650 10665 10685 10694 10696 10695 10695 10700 10703 10705 10708 10713 10718 10723 10726 10728 10729 10729 10727 10726 10724 10722 10718 10716 10714 10711 10708 10703 10698 10694 10687 10681 10675
10491 10503 10520 10527 10539 10552 10565 10578 10590 10605 10615 10627 10642 10675 10671 10676 10678 10679 10681 10682 10684 10691 10699 10705 10709 10711 10713 10713 10711 10710 10709 10707 10704 10701 10699 10697 10693 10688 10685 10679 10673 10667 10662 10654
10462 10482 10501 10520 10540 10536 10550 10561 10572 10582 10589 10619 10633 10653 10653 10658 10659 10659 10659 10662 10672 10681 10685 10688 10690 10691 10693 10694 10693 10692 10690 10689 10686 10684 10682 10679 10674 10670 10664 10659 10653 10646 10640 10635
10447 10471 10484 10500 10509 10515 10529 10538 10543 10551 10582 10581 10626 10626 10630 10634 10640 10638 10641 10655 10661 10663 10666 10667 10668 10671 10674 10673 10672 10671 10670 10668 10667 10666 10663 10658 10653 10648 10643 10637 10630 10624 10620 10614
10442 10460 10467 10479 10487 10495 10507 10515 10523 10538 10560 10578 10608 10619 10617 10619 10628 10632 10631 10635 10639 10641 10645 10647 10651 10653 10652 10652 10651 10650 10649 10650 10649 10645 10642 10638 10632 10627 10622 10614 10608 10604 10597 10590
10417 10434 10446 10461 10467 10476 10485 10516 10519 10533 10544 10575 10581 10607 10592 10594 10605 10610 10611 10613 10616 10620 10625 10631 10630 10630 10630 10629 10629 10630 10630 10628 10628 10624 10619 10615 10609 10604 10599 10593 10587 10581 10573 10564
10399 10416 10428 10441 10449 10455 10504 10497 10507 10516 10531 10544 10559 10570 10575 10575 10578 10586 10593 10594 10598 10600 10605 10605 10602 10603 10606 10608 10609 10609 10608 10608 10605 10599 10595 10593 10589 10584 10577 10571 10564 10556 10548 10540
10392 10403 10416 10426 10438 10459 10477 10490 10496 10499 10512 10515 10534 10541 10545 10544 10546 10562 10566 10567 10572 10575 10574 10574 10578 10581 10584 10585 10587 10585 10584 10584 10580 10576 10574 10571 10568 10560 10553 10546 10539 10531 10523 10514
10376 10385 10398 10411 10420 10451 10481 10474 10468 10467 10493 10508 10519 10525 10526 10522 10527 10559 10539 10541 10540 10543 10551 10559 10561 10561 10564 10565 10564 10565 10564 10562 10558 10553 10552 10549 10543 10535 10529 10523 10514 10506 10497 10489
10358 10363 10376 10390 10402 10438 10449 10440 10440 10440 10498 10474 10481 10486 10488 10496 10513 10525 10522 10528 10534 10539 10542 10543 10543 10541 10542 10544 10544 10544 10542 10539 10534 10532 10529 10523 10516 10510 10503 10496 10489 10483 10473 10462
10342 10346 10359 10367 10381 10408 10419 10423 10424 10438 10444 10456 10454 10462 10473 10485 10496 10504 10506 10510 10513 10520 10522 10523 10522 10522 10520 10520 10521 10520 10516 10510 10509 10506 10502 10496 10490 10485 10479 10472 10465 10456 10447 10438
10330 10341 10353 10359 10383 10394 10399 10405 10410 10415 10424 10435 10443 10447 10455 10468 10476 10482 10486 10491 10492 10494 10498 10499 10498 10497 10496 10496 10495 10492 10488 10487 10484 10479 10475 10470 10466 10460 10452 10445 10439 10430 10420 10410
10316 10328 10333 10346 10368 10373 10382 10387 10394 10400 10407 10413 10421 10432 10437 10442 10449 10455 10461 10464 10468 10470 10470 10471 10471 10472 10471 10469 10467 10466 10462 10459 10456 10452 10448 10443 10438 10432 10423 10415 10409 10402 10393 10383
10305 10311 10322 10331 10342 10350 10358 10365 10371 10379 10386 10391 10396 10403 10411 10420 10423 10429 10433 10438 10440 10442 10444 10445 10447 10446 10445 10443 10441 10437 10435 10432 10429 10425 10421 10416 10411 10405 10397 10388 10378 10372 10363 10353
10289 10294 10299 10309 10315 10326 10332 10340 10348 10356 10360 10368 10374 10380 10386 10394 10401 10403 10407 10411 10414 10416 10418 10419 10418 10417 10415 10415 10414 10411 10408 10405 10401 10397 10392 10387 10383 10375 10367 10358 10349 10341 10334 10323